Change the Weather History Date:

Sunday, September 14, 2014

  Actual Average Record
Temperature  
Mean Temperature 54 °F 65 °F  
Max Temperature 64 °F 75 °F 98 °F (1939)
Min Temperature 43 °F 56 °F 37 °F (1960)
Degree Days  
Heating Degree Days 11 3  
Month to date heating degree days 35 22  
Since 1 July heating degree days 48 32  
Cooling Degree Days 0 3  
Month to date cooling degree days 66 56  
Year to date cooling degree days 698 767  
Growing Degree Days 4 (Base 50)    
Moisture  
Dew Point 42 °F    
Average Humidity 70    
Maximum Humidity 96    
Minimum Humidity 44    
Precipitation  
Precipitation 0.00 in 0.11 in 1.58 in (1911)
Month to date precipitation 3.90 1.54  
Year to date precipitation 31.32 23.97  
Snow  
Snow 0.00 in 0.00 in 0.00 in ()
Month to date snowfall 0.0 0.0  
Since 1 July snowfall 0.0 0.0  
Since 1 September snowfall 0.0 0.0  
Snow Depth 0.00 in    
Sea Level Pressure  
Sea Level Pressure 30.30 in    
Wind  
Wind Speed 3 mph (South)    
Max Wind Speed 13 mph    
Max Gust Speed 17 mph    
Visibility 9 miles    
Events      
T = Trace of Precipitation, MM = Missing Value Source: NWS Daily Summary

Daily Weather History Graph

Daily Weather History Graph

Search for Another Location

Airport or City:

Trip Planner

Search our weather history database for the weather conditions in past years. The results will help you decide how hot, cold, wet, or windy it might be!

Date:

Astronomy

Sep. 14, 2014 Rise Set
Actual Time 7:12 AM EDT 7:44 PM EDT
Civil Twilight 6:44 AM EDT 8:12 PM EDT
Nautical Twilight 6:10 AM EDT 8:46 PM EDT
Astronomical Twilight 5:36 AM EDT 9:20 PM EDT
Moon 11:30 PM EDT (9/14) 1:23 PM EDT (9/14)
Length of Visible Light 13h 28m
Length of Day
12h 32m
Waning Gibbous, 64% of the Moon is Illuminated
Sep 14
Waning Gibbous
Sep 15
Last Quarter
Sep 24
New
Oct 1
First Quarter
Oct 8
Full

Hourly Weather History & Observations

Time (EDT) Temp. Dew Point Humidity Pressure Visibility Wind Dir Wind Speed Gust Speed Precip Events Conditions
12:53 AM 46.9 °F 42.1 °F 83% 30.36 in 8.0 mi Calm Calm - N/A   Clear
1:53 AM 46.0 °F 43.0 °F 89% 30.35 in 9.0 mi Calm Calm - N/A   Clear
2:53 AM 45.0 °F 42.1 °F 90% 30.36 in 9.0 mi Calm Calm - N/A   Clear
3:53 AM 44.1 °F 41.0 °F 89% 30.36 in 8.0 mi Calm Calm - N/A   Clear
4:53 AM 43.0 °F 41.0 °F 93% 30.36 in 7.0 mi Calm Calm - N/A   Partly Cloudy
5:53 AM 43.0 °F 39.9 °F 89% 30.36 in 8.0 mi Calm Calm - N/A   Partly Cloudy
6:53 AM 43.0 °F 39.9 °F 89% 30.36 in 8.0 mi Calm Calm - N/A   Scattered Clouds
7:53 AM 45.0 °F 41.0 °F 86% 30.37 in 8.0 mi Calm Calm - N/A   Mostly Cloudy
8:53 AM 50.0 °F 45.0 °F 83% 30.37 in 10.0 mi Calm Calm - N/A   Mostly Cloudy
9:53 AM 57.0 °F 41.0 °F 55% 30.36 in 10.0 mi Calm Calm - 0.01 in   Mostly Cloudy
10:53 AM 59.0 °F 37.0 °F 44% 30.35 in 10.0 mi Variable 3.5 mph - N/A   Mostly Cloudy
11:53 AM 59.0 °F 39.0 °F 48% 30.35 in 10.0 mi Variable 5.8 mph - N/A   Mostly Cloudy
12:53 PM 59.0 °F 39.9 °F 49% 30.33 in 10.0 mi Calm Calm - N/A   Mostly Cloudy
1:53 PM 62.1 °F 42.1 °F 48% 30.31 in 10.0 mi SW 11.5 mph - N/A   Mostly Cloudy
2:53 PM 62.1 °F 42.1 °F 48% 30.29 in 10.0 mi SSW 9.2 mph - N/A   Mostly Cloudy
3:53 PM 63.0 °F 42.1 °F 46% 30.26 in 10.0 mi Variable 6.9 mph - N/A   Mostly Cloudy
4:53 PM 62.1 °F 41.0 °F 46% 30.24 in 10.0 mi South 4.6 mph - N/A   Mostly Cloudy
5:53 PM 63.0 °F 42.1 °F 46% 30.22 in 10.0 mi SSW 8.1 mph - N/A   Scattered Clouds
6:53 PM 61.0 °F 41.0 °F 48% 30.23 in 10.0 mi SSW 6.9 mph - N/A   Scattered Clouds
7:53 PM 57.0 °F 45.0 °F 64% 30.23 in 10.0 mi SE 4.6 mph - N/A   Scattered Clouds
8:53 PM 57.0 °F 44.1 °F 62% 30.23 in 10.0 mi SE 5.8 mph - N/A   Scattered Clouds
9:53 PM 54.0 °F 45.0 °F 72% 30.22 in 10.0 mi Calm Calm - N/A   Partly Cloudy
10:53 PM 53.1 °F 45.0 °F 74% 30.22 in 8.0 mi Calm Calm - N/A   Clear
11:53 PM 52.0 °F 46.0 °F 80% 30.22 in 8.0 mi Calm Calm - N/A   Partly Cloudy